Flag for Canada Weather past 2 weeks in Thompson, Manitoba, Canada

Now
10 °F

Scattered clouds.


Feels Like: -3 °F
Forecast: -8 / 22 °F
Wind: 9 mph from North

Location: Thompson

Current Time: Jan 27, 2015 at 11:53:49 AM

Latest Report: Jan 27, 2015 at 11:00 AM


Visibility: 15 mi

Pressure: 29.98 "Hg

Humidity: 79%

Dew point: 5 °F

Location of ThompsonLocation

Historic Weather in Thompson — Graph

°F

Thompson temperature yesterday

Maximum temperature yesterday: 16 °F (at 11:00 PM)
Minimum temperature yesterday: 3 °F (at 12:00 AM)
Average temperature yesterday: 8 °F

Past Weeks' High & Low Weather Summary

 TemperatureHumidityPressure
High30 °F (Jan 23, 3:00 AM)100% (Jan 22, 10:00 PM)30.36 "Hg (Jan 22, 10:00 PM)
Low-38 °F (Jan 16, 4:00 AM)59% (Jan 12, 12:00 PM)29.37 "Hg (Jan 17, 3:00 AM)
Average-1 °F78%29.95 "Hg
* Reported Jan 12 10:00 AM — Jan 27 10:00 AM, Thompson, Weather by CustomWeather, © 2014

Note: Actual official high and low records may vary slightly from our data, if they occured in-between our weather recording intervals... More about our weather records

Advertising

Thompson weather history for previous 24 hours

 ConditionsComfort  
Time TempWeatherWind HumidityBarometerVisibility
10:00 AM
Jan 27
10 °FPartly sunny.13 mph79%29.96 "Hg15 mi
9:00 AM14 °FPartly sunny.16 mph85%29.91 "Hg15 mi
8:46 AM16 °FPartly sunny.22 mph79%29.91 "Hg15 mi
8:00 AM23 °FOvercast.13 mph86%29.86 "Hg15 mi
7:00 AM21 °FOvercast.3 mph93%29.83 "Hg10 mi
6:46 AM21 °FOvercast.3 mph93%29.83 "Hg10 mi
6:00 AM18 °FLight snow. Passing clouds.6 mph93%29.82 "Hg8 mi
5:00 AM21 °FLight snow. Ice fog.7 mph93%29.80 "Hg5 mi
4:00 AM21 °FLight snow. Ice fog.9 mph93%29.80 "Hg4 mi
3:00 AM19 °FLight snow. Ice fog.8 mph93%29.80 "Hg5 mi
2:00 AM18 °FLight snow. Ice fog.7 mph93%29.80 "Hg5 mi
1:00 AM18 °FLight snow. Ice fog.6 mph93%29.80 "Hg5 mi
12:00 AM18 °FLight snow. Mostly cloudy.5 mph93%29.80 "Hg5 mi
11:00 PM
Jan 26
16 °FLight snow. Ice fog.6 mph93%29.82 "Hg4 mi
10:00 PM14 °FLight snow. Low clouds.7 mph92%29.82 "Hg4 mi
9:00 PM14 °FLight snow. Mostly cloudy.8 mph92%29.82 "Hg4 mi
8:00 PM14 °FLight snow. Mostly cloudy.7 mph85%29.83 "Hg15 mi
7:00 PM12 °FLight snow. Mostly cloudy.7 mph85%29.84 "Hg15 mi
6:00 PM12 °FLight snow. Mostly cloudy.7 mph85%29.85 "Hg15 mi
5:00 PM12 °FLight snow. Passing clouds.6 mph79%29.85 "Hg10 mi
4:00 PM10 °FLight snow. Broken clouds.6 mph79%29.86 "Hg10 mi
3:00 PM10 °FLight snow. Mostly cloudy.6 mph79%29.86 "Hg12 mi
2:00 PM9 °FLight snow. Overcast.5 mph85%29.88 "Hg6 mi
1:00 PM9 °FLight snow. Overcast.3 mph78%29.89 "Hg6 mi
12:00 PM7 °FLight snow. Overcast.3 mph78%29.90 "Hg6 mi
11:00 AM5 °FLight snow. Mostly cloudy.5 mph85%29.91 "Hg6 mi
Weather by CustomWeather, © 2014

See weather overviewHow to use our weather pages